Torna al catalogo

CZ-4 DEB

AttivoPO
NORAD 26207·DEBRIS·🇨🇳 China

Lanciato Oct 14, 1999 da Taiyuan Satellite Launch Center

Loading…

Prossimi Passaggi (prossime 24 ore)

TLE

AggiornatoSource: Space-Track

Epoca: Sep 14, 2026, 14:27 UTC

1 26207U 99057CV  26257.60227736  .00011037  00000-0  11072-2 0  9997
2 26207  98.4028  20.6422 0054320 120.4315 250.7199 14.90403603396995

Traccia CZ-4 DEB in tempo reale con AllMySat

Download on the App Store